• Processing (Info)

  • MPEC 2021-K97 : 2021 GE59

    The following Minor Planet Electronic Circular may be linked-to from your own Web pages, but must not otherwise be redistributed electronically.

    A form allowing access to any MPEC is at the bottom of this page.


    Read MPEC 2021-K96 Read MPEC 2021-K98


    M.P.E.C. 2021-K97                                  Issued 2021 May 30, 02:00 UT
    
         The Minor Planet Electronic Circulars contain information on unusual
             minor planets and routine data on comets.  They are published
        on behalf of Division F of the International Astronomical Union by the
              Minor Planet Center, Smithsonian Astrophysical Observatory,
                              Cambridge, MA 02138, U.S.A.
    
                 Prepared using the Tamkin Foundation Computer Network
    
                                  MPC@CFA.HARVARD.EDU
                URL https://www.minorplanetcenter.net/    ISSN 1523-6714
    
                                    2021 GE59                                
    
    
                               Revision to MPEC 2021-J117                           
    
    Additional Observations:
         K21G59E  C2010 11 08.10433 22 14 47.79 -01 35 38.3          21.0 VrEK097G96
         K21G59E  C2010 11 08.11119 22 14 48.80 -01 35 35.5          20.7 VrEK097G96
         K21G59E  C2010 11 08.11809 22 14 49.81 -01 35 33.2          20.6 VrEK097G96
         K21G59E  C2014 11 23.23793 03 24 36.53 +21 46 45.8          20.7 VqEK097G96
         K21G59E  C2014 11 23.24403 03 24 36.03 +21 46 43.0          21.0 VqEK097G96
         K21G59E  C2014 11 23.25012 03 24 35.61 +21 46 39.8          20.0 VqEK097G96
         K21G59E  C2014 11 23.25620 03 24 35.16 +21 46 37.7          20.3 VqEK097G96
    
    Observer details:
    G96 Mt. Lemmon Survey.  Observers S. M. Larson, E. J. Christensen.  Measurers
        J. D. Ahern, E. C. Beshore, A. Boattini, G. J. Garradd, A. R. Gibbs, A. D.
        Grauer, R. E. Hill, R. A. Kowalski, S. M. Larson, R. H. McNaught, E. J.
        Christensen, J. A. Johnson, R. G. Matheny, F. C. Shelly.  1.5-m reflector
        + CCD.
    
    Orbital elements:
    2021 GE59                                                Earth MOID = 0.2911 AU
    Epoch 2020 Dec. 17.0 TT = JDT 2459200.5                 Veres
    M 272.78796              (2000.0)            P               Q
    n   0.26279563     Peri.   58.22247     +0.66337560     +0.74218537
    a   2.4139261      Node   253.64531     -0.71575580     +0.59219537
    e   0.4649127      Incl.    5.70360     -0.21823487     +0.31379217
    P   3.75           H   18.9           G   0.15           U   2
    Residuals in seconds of arc
    101108 G96  0.1-  0.5+    210411 F51  0.4-  0.2+    210501 F51  0.2-  0.2+
    101108 G96  0.2-  0.6+    210411 F51  0.1-  0.0     210509 F51  0.0   0.1+
    101108 G96  0.3-  0.3+    210411 F51  0.1-  0.4+    210509 F51  0.1-  0.1+
    141123 G96  0.3+  0.0     210411 F51  0.4-  0.1+    210509 F51  0.2-  0.0
    141123 G96  0.4-  0.1+    210413 F51  0.8+  0.5-    210509 F51  0.0   0.1+
    141123 G96  0.0   0.1-    210413 F51  0.5+  0.4-    210529 807  0.4-  0.0
    141123 G96  0.1-  0.7+    210413 F51  0.5+  0.5-    210529 807  0.0   0.0
    210409 F52  0.5-  0.6+    210413 F51  0.1+  0.0     210529 807  0.0   0.0
    210409 F52  0.2-  0.4+    210501 F51  0.0   0.2+
    210409 F52  0.4-  0.2+    210501 F51  0.0   0.1+
    
    Ephemeris:
    2021 GE59                a,e,i = 2.41, 0.46, 6                   q = 1.2917
    Date    TT    R. A. (2000) Decl.     Delta      r    Elong.  Phase     V
    2021 04 30    12 38 50.7 -12 23 09   1.2349  2.1817   153.2    12.0    21.8
    ...
    2021 05 15    12 27 26.5 -10 11 50   1.2504  2.0973   135.8    19.6    22.0
    ...
    2021 05 23    12 24 23.2 -09 15 16   1.2742  2.0516   127.2    23.1    22.1
    ...
    2021 05 29    12 23 36.8 -08 41 31   1.2971  2.0171   121.1    25.5    22.2
    2021 05 30    12 23 36.7 -08 36 40   1.3012  2.0114   120.1    25.8    22.2
    2021 05 31    12 23 38.7 -08 32 02   1.3054  2.0056   119.2    26.2    22.2
    ...
    2021 06 06    12 24 35.6 -08 09 06   1.3322  1.9709   113.5    28.2    22.2
    ...
    2021 06 14    12 27 48.7 -07 51 33   1.3706  1.9245   106.6    30.4    22.3
    ...
    2021 06 29    12 39 23.4 -07 57 06   1.4450  1.8373    95.0    33.5    22.4
    
    A. U. Tomatic                (C) Copyright 2021 MPC           M.P.E.C. 2021-K97
    


    Read MPEC 2021-K96 Read MPEC 2021-K98


    MPEC number:

    Enter an MPEC number in one of the following forms:

    • 1997-B01 (the full form)
    • J97B01 (the packed version of the full form)
    • B01 (the abbreviated form)